Terminal Aerodrome Forecast
Issued by NWS Memphis, TN

Home | Current Version | Previous Version | Text Only | Print | Product List | Glossary On
Versions: 1 2 3 4 5 6 7 8 9 10 11 12 13 14 15 16 17 18 19 20 21 22 23 24 25 26 27 28 29 30 31 32 33 34 35 36 37 38 39 40 41 42 43 44 45 46 47 48 49 50
000
FTUS44 KMEG 190852 AAA
TAFMEM
TAF AMD
KMEM 190852Z 1909/2012 34014G20KT 6SM -DZ BR VCSH OVC015
     FM191400 34012G18KT P6SM VCSH OVC015
     FM191800 33012G18KT P6SM VCSH OVC025
     FM200000 33007KT P6SM OVC050
     FM200300 32009KT P6SM FEW050=

USA.gov is the U.S. government's official web portal to all federal, state and local government web resources and services.